Location: Heilbronn
(49.1548°N, 9.2780°E)
Time: 11:04:52
(UTC+01:00)

ISS - Pass Details

Date: 09 January 2018
Orbit: 402 x 407 km, 51.6° (Epoch: 18 January)

Event Time Altitude Azimuth Distance (km) Brightness Sun altitude
Exits shadow 05:48:47 39° 63° (ENE) 622 -2.6 -23.1°
Drops below altitude 10° 05:51:08 10° 87° (E) 1,468 0.1 -22.8°
Sets 05:53:15 0° 92° (E) 2,329 1.5 -22.4°
